AirNav  
 
 927 users online  

11KS Squadron Field Airport
Erie, Kansas, USA


FAA INFORMATION EFFECTIVE 12 OCTOBER 2017

Location

FAA Identifier: 11KS
Lat/Long: 37-27-39.9600N / 095-14-31.0200W
37-27.666000N / 095-14.517000W
37.4611000 / -95.2419500
(estimated)
Elevation: 947 ft. / 289 m (estimated)
From city: 8 miles S of ERIE, KS
Time zone: UTC -5 (UTC -6 during Standard Time)
Zip code: 66740

Airport Operations

Airport use: Private use. Permission required prior to landing
Activation date: 03/2017
Control tower: no
ARTCC: KANSAS CITY CENTER
FSS: COLUMBIA FLIGHT SERVICE STATION
Attendance: UNATNDD
Segmented circle: no

Airport Communications

WX ASOS at PPF (15 nm SW): 118.175 (620-336-3834)
WX ASOS at CNU (17 nm NW): 127.075 (620-431-6781)

Nearby radio navigation aids

VOR radial/distance  VOR name  Freq  Var
OSWr346/18.3OSWEGO VOR/DME117.6008E
CNUr116/19.4CHANUTE VOR/DME109.2005E

 
NDB name  Hdg/Dist  Freq  Var  ID
COFFEYVILLE030/27.121205ECFV -.-. ..-. ...-

Airport Services

Runway Information

Runway 1/19

Dimensions: 1970 x 100 ft. / 600 x 30 m
Surface: turf
RUNWAY 1  RUNWAY 19
Traffic pattern: leftleft

Airport Ownership and Management from official FAA records

Ownership: Privately-owned
Owner: KENNETH A. STEENROD
18742 MCKINNLEY LAKE ROAD
PARSONS, KS 67357
Phone 620-778-9577
Manager: SQUADRON FIELD
16650 60TH ROAD
ERIE, KS 66733

Instrument Procedures

There are no published instrument procedures at 11KS.

Some nearby airports with instrument procedures:

KPPF - Tri-City Airport (15 nm SW)
KCNU - Chanute Martin Johnson Airport (17 nm NW)
2K7 - Neodesha Municipal Airport (19 nm W)
KPTS - Atkinson Municipal Airport (24 nm E)
K88 - Allen County Airport (25 nm N)
 
Loc | Ops | Rwys | IFR | FBO | Links
Com | Nav | Svcs | Stats | Notes


 
Aerial photo
No photo
 
Airport distance calculator
Flying to Squadron Field Airport? Find the distance to fly.

From to 11KS

Sunrise and sunset
Times for 21-Oct-2017
 Local
(UTC-5)
 Zulu
(UTC)
Morning civil twilight07:0912:09
Sunrise07:3612:36
Sunset18:3523:35
Evening civil twilight19:0200:02

Current date and time
Zulu (UTC)  21-Oct-2017 19:40:35
Local (UTC-5)  21-Oct-2017 14:40:35
 
METAR
KPPF 
14nm SW 
211903Z AUTO 18010G20KT 10SM FEW029 SCT037 OVC065 24/18 A2985 RMK AO2 T02390183
KCNU 
17nm NW 
211852Z AUTO 18013G21KT 10SM SCT028 BKN034 OVC050 23/18 A2984 RMK AO2 RAB25E34 SLP097 P0000 T02330183
KPTS 
24nm E 
211915Z AUTO 19015G25KT 10SM SCT037 BKN042 OVC055 25/18 A2986 RMK AO2 T02520180
KCFV 
27nm SW 
211852Z AUTO 18013G21KT 10SM SCT032 OVC055 24/18 A2984 RMK AO2 PK WND 17026/1812 SLP097 T02440183
TAF
KCNU 
17nm NW 
211738Z 2118/2218 18019G27KT P6SM SCT015 OVC025 FM212300 19016G24KT P6SM -SHRA VCTS BKN030CB TEMPO 2200/2203 1SM +TSRA OVC015CB FM220300 35016G23KT P6SM -SHRA VCTS OVC030CB FM220800 33009KT P6SM SCT050 BKN150
NOTAMs
Click for the latest NOTAMs
NOTAMs are issued by the DoD/FAA and will open in a separate window not controlled by AirNav.

 

 
 

Would you like to see your business listed on this page?

 If your business provides an interesting product or service to pilots, flight crews, aircraft, or users of the Squadron Field Airport, you should consider listing it here.  To start the listing process, click on the button below
 
Add a business
 

Other Pages about Squadron Field Airport

Update a link
 
Copyright © AirNav, LLC. All rights reserved. Privacy Policy  Contact